sat.trackr.live / text

‹ back to catalog

UNKNOWN

NORAD 84188

UNKNOWN UNKNOWN UNKNOWN

§ Identity

Operator
Country
Launch date
Launch site
Launch vehicle
Mass (kg)
RCS (m²)

External: N2YO · Heavens-Above

§ Orbital elements

Epoch: 2026-05-24T04:04:00.215616Z

Period
170.16 min
Inclination
65.1087°
Eccentricity
0.3318902
Mean motion
8.46254701 rev/d
Perigee alt
417.8 km
Apogee alt
7,169.7 km
Semi-major
10,171.9 km
B*
1.5047e-1
RAAN
103.8837°
Arg perigee
358.7008°
Mean anomaly
0.6574°
Rev number
5,430

§ Raw data

UNKNOWN1 84188U          26144.16944694  .00448022  00000+0  15047+0 0  99942 84188  65.1087 103.8837 3318902 358.7008   0.6574  8.46254701 54306

JSON: /api/v1/satellites/84188 · /tle

For live sub-satellite position, see the globe view (requires WebGL).

§ Visibility from observer

Set your observer location to see the next 7 days of passes ≥ 10°. The values pass through the URL so the page stays shareable.

No JS? Fill the form by hand. The geolocation button needs JavaScript.